This is the latest recevied weather packets stored in our database for station/object WX5RP. If no packets are shown the sender has not sent any weather packets the latest 10 day(s).
| Time | Temp. | Humidity | Pressure | Rain* | Wind** | Luminosity | Snow |
|---|---|---|---|---|---|---|---|
| 1777659317 | 20° C | 23% | 1020.1 hPa | 0 mm | - | 693 W/m² | - |
| 1777658717 | 20° C | 23% | 1018.9 hPa | 0 mm | - | 695 W/m² | - |
| 1777658117 | 19.44° C | 22% | 1018.9 hPa | 0 mm | - | 744 W/m² | - |
| 1777657517 | 20° C | 21% | 1019.2 hPa | 0 mm | - | 722 W/m² | - |
| 1777656917 | 20° C | 23% | 1019.1 hPa | 0 mm | - | 781 W/m² | - |
| 1777656317 | 19.44° C | 21% | 1018.8 hPa | 0 mm | - | 752 W/m² | - |
| 1777655717 | 19.44° C | 21% | 1018.5 hPa | 0 mm | - | 698 W/m² | - |
| 1777655116 | 18.89° C | 24% | 1018.8 hPa | 0 mm | - | 695 W/m² | - |
| 1777654517 | 18.89° C | 23% | 1018.8 hPa | 0 mm | - | 703 W/m² | - |
| 1777653917 | 18.33° C | 25% | 1018.8 hPa | 0 mm | - | 640 W/m² | - |
| 1777653317 | 17.78° C | 29% | 1019.5 hPa | 0 mm | - | 589 W/m² | - |
| 1777652716 | 17.22° C | 28% | 1019.7 hPa | 0 mm | - | 620 W/m² | - |
| 1777652117 | 16.67° C | 28% | 1019.7 hPa | 0 mm | - | 587 W/m² | - |
| 1777651516 | 16.11° C | 33% | 1019.1 hPa | 0 mm | - | 531 W/m² | - |
| 1777650916 | 15.56° C | 36% | 1019.5 hPa | 0 mm | - | 495 W/m² | - |
| 1777650316 | 14.44° C | 40% | 1019.5 hPa | 0 mm | - | 439 W/m² | - |
| 1777649716 | 13.89° C | 38% | 1020 hPa | 0 mm | - | 416 W/m² | - |
| 1777649116 | 12.78° C | 40% | 1020.3 hPa | 0 mm | - | 377 W/m² | - |
| 1777648516 | 12.22° C | 42% | 1020.6 hPa | 0 mm | - | 305 W/m² | - |
| 1777647916 | 11.67° C | 43% | 1019.5 hPa | 0 mm | - | 324 W/m² | - |
| 1777647316 | 11.11° C | 43% | 1020 hPa | 0 mm | - | 342 W/m² | - |
| 1777646716 | 10° C | 46% | 1019.7 hPa | 0 mm | - | 338 W/m² | - |
| 1777646116 | 8.33° C | 51% | 1019.9 hPa | 0 mm | - | 295 W/m² | - |
| 1777645518 | 6.67° C | 54% | 1020.2 hPa | 0 mm | - | 252 W/m² | - |
| 1777644916 | 5° C | 59% | 1020.2 hPa | 0 mm | - | 191 W/m² | - |
* Rain latest hour (hover to see other rain measurements)
** Current wind speed in m/s (hover to see current wind gust speed)